Regional Weather Roundup
Issued by NWS

Home | Current Version | Previous Version | Text Only | Print | Product List | Glossary Off
Versions: 1 2 3 4 5 6 7 8 9 10 11 12 13 14 15 16 17 18 19 20 21 22 23 24 25 26 27 28 29 30 31 32 33 34 35 36 37 38 39 40 41 42 43 44 45 46 47 48 49 50

000
ASUS43 KBIS 042102
RWRND

NORTH DAKOTA REGIONAL WEATHER ROUNDUP
NATIONAL WEATHER SERVICE BISMARCK ND
400 PM CDT FRI SEP 04 2015

NOTE: "FAIR" INDICATES FEW OR NO CLOUDS BELOW 12,000 FEET WITH NO
SIGNIFICANT WEATHER AND/OR OBSTRUCTIONS TO VISIBILITY.


NDZ001>003-009>011-017-042200-
NORTHWEST NORTH DAKOTA

CITY           SKY/WX    TMP DP  RH WIND       PRES   REMARKS
WILLISTON      FAIR      73  57  57 N16       29.86F
MINOT          CLOUDY    73  62  68 NW15G21   29.81R
$$

NDZ018>021-031>035-040>046-042200-
SOUTHWEST NORTH DAKOTA

CITY           SKY/WX    TMP DP  RH WIND       PRES   REMARKS
BISMARCK       FAIR      86  67  52 CALM      29.77R
DICKINSON      PTSUNNY   75  64  68 NE8       29.83S
GARRISON         N/A     81  65  58 N6        29.80S
HETTINGER ARPT FAIR      89  56  32 VRB6      29.80F
$$

NDZ004>008-012>016-024-026-027-054-042200-
NORTHEAST NORTH DAKOTA

CITY           SKY/WX    TMP DP  RH WIND       PRES   REMARKS
GRAND FORKS    PTSUNNY   78  65  63 SW9       29.79R
GRND FRKS AFB  DRIZZLE   76  70  81 S7        29.80R
DEVILS LAKE    CLOUDY    68  63  83 E8        29.79R
$$

NDZ022-023-025-028>030-036>039-047>053-042200-
SOUTHEAST NORTH DAKOTA

CITY           SKY/WX    TMP DP  RH WIND       PRES   REMARKS
FARGO          LGT RAIN  79  71  76 SE8       29.81R
JAMESTOWN      FAIR      79  66  64 SE6       29.78F
$$




USA.gov is the U.S. government's official web portal to all federal, state and local government web resources and services.